FW9555 Weather Reports


Display with metric or nautical units.
time (UTC)temp
F
wind
direction
speed
MPH
gust
MPH
rain 1hr
in
rain 24hr
in
rain mn
in
humidity
%
barometer
mb
20260904065123 74 68 0.0 0.0 0.00 0.00 0.00 99 1019.8
20260904064618 74 68 0.0 0.0 0.00 0.00 0.00 99 1019.9
20260904064113 74 68 0.0 0.0 0.00 0.00 0.00 99 1020.4
20260904063609 74 68 0.0 2.0 0.00 0.00 0.00 99 1020.4
20260904063104 74 270 0.0 0.0 0.00 0.00 0.00 99 1020.3
20260904062601 74 270 0.0 0.0 0.00 0.00 0.00 99 1020.4
20260904062056 74 270 0.0 0.0 0.00 0.00 0.00 99 1020.3
20260904061551 74 270 0.0 0.0 0.00 0.00 0.00 99 1020.5
20260904061048 75 270 0.0 0.0 0.00 0.00 0.00 99 1020.4
20260904060544 75 270 0.0 0.0 0.00 0.00 0.00 99 1020.4
20260904060039 75 270 0.0 0.0 0.00 0.00 0.00 99 1020.4
20260904055534 74 0 0.0 0.0 0.00 0.00 0.00 99 1020.7
20260904055030 75 337 0.0 1.0 0.00 0.00 0.00 99 1020.7
20260904054526 75 300 0.0 0.0 0.00 0.00 0.00 99 1020.4
20260904054021 75 300 0.0 0.0 0.00 0.00 0.00 99 1020.8
20260904053521 75 279 0.0 0.0 0.00 0.00 0.00 99 1020.6
20260904053016 75 0 0.0 0.0 0.00 0.00 0.00 99 1020.6
20260904052512 75 0 0.0 0.0 0.00 0.00 0.00 99 1020.6
20260904052008 75 0 0.0 0.0 0.00 0.00 0.00 99 1020.8
20260904051505 75 90 0.0 0.0 0.00 0.00 0.00 99 1020.6
20260904051003 75 90 0.0 0.0 0.00 0.00 0.00 99 1020.7
20260904050500 75 90 0.0 0.0 0.00 0.00 0.00 99 1020.7
20260904045955 75 90 0.0 1.0 0.00 0.00 0.00 99 1020.7
20260904045450 75 353 0.0 0.0 0.00 0.00 0.00 99 1020.8
20260904044944 75 353 0.0 0.0 0.00 0.00 0.00 99 1020.7
20260904044441 75 353 0.0 0.0 0.00 0.00 0.00 98 1020.9
20260904043937 76 353 0.0 0.0 0.00 0.00 0.00 99 1020.7
20260904043433 76 81 0.0 0.0 0.00 0.00 0.00 98 1020.7
20260904042928 76 81 0.0 0.0 0.00 0.00 0.00 98 1020.8
20260904042424 76 81 0.0 0.0 0.00 0.00 0.00 98 1020.7
20260904041919 76 81 0.0 0.0 0.00 0.00 0.00 98 1020.6
20260904041416 76 81 0.0 0.0 0.00 0.00 0.00 97 1020.6
20260904040912 77 0 0.0 0.0 0.00 0.00 0.00 97 1020.6
20260904040406 77 0 0.0 0.0 0.00 0.00 0.00 97 1020.7
20260904035902 77 0 0.0 0.0 0.00 0.00 0.00 97 1020.7
20260904035358 77 0 0.0 0.0 0.00 0.00 0.00 96 1020.7
20260904034857 77 270 0.0 0.0 0.00 0.00 0.00 96 1020.6
20260904034353 77 270 0.0 0.0 0.00 0.00 0.00 96 1020.7
20260904033848 77 270 0.0 0.0 0.00 0.00 0.00 96 1020.6
20260904033344 77 270 0.0 0.0 0.00 0.00 0.00 96 1020.6
20260904032841 77 270 0.0 0.0 0.00 0.00 0.00 96 1020.8
20260904032341 77 270 0.0 1.0 0.00 0.00 0.00 95 1020.8
20260904031834 77 270 0.0 0.0 0.00 0.00 0.00 95 1020.8
20260904031330 77 270 0.0 0.0 0.00 0.00 0.00 94 1020.6
20260904030826 77 270 0.0 0.0 0.00 0.00 0.00 94 1020.6
20260904030321 78 270 0.0 0.0 0.00 0.00 0.00 94 1020.6
20260904025817 78 270 0.0 0.0 0.00 0.00 0.00 94 1020.7
20260904025313 78 270 0.0 0.0 0.00 0.00 0.00 94 1020.6
20260904024813 78 270 0.0 0.0 0.00 0.00 0.00 94 1020.7
20260904024308 78 270 0.0 0.0 0.00 0.00 0.00 93 1020.8
20260904023805 78 270 0.0 0.0 0.00 0.00 0.00 93 1020.8
20260904023300 78 270 0.0 0.0 0.00 0.00 0.00 93 1020.9
20260904022759 78 270 0.0 0.0 0.00 0.00 0.00 93 1021.0
20260904022256 78 270 0.0 0.0 0.00 0.00 0.00 92 1020.8
20260904021752 79 270 0.0 0.0 0.00 0.00 0.00 93 1020.9
20260904021247 78 270 0.0 0.0 0.00 0.00 0.00 92 1021.0
20260904020743 79 270 0.0 0.0 0.00 0.00 0.00 92 1020.8
20260904020242 79 270 0.0 0.0 0.00 0.00 0.00 91 1021.0
20260904015741 79 270 0.0 0.0 0.00 0.00 0.00 92 1020.7
20260904015237 79 270 0.0 0.0 0.00 0.00 0.00 91 1020.6
20260904014735 79 270 0.0 0.0 0.00 0.00 0.00 91 1020.7
20260904014230 80 270 0.0 0.0 0.00 0.00 0.00 91 1020.6
20260904013726 80 270 0.0 0.0 0.00 0.00 0.00 91 1020.6
20260904013222 80 270 0.0 0.0 0.00 0.00 0.00 91 1020.4
20260904012718 80 270 0.0 0.0 0.00 0.00 0.00 91 1020.5
20260904012217 80 270 0.0 0.0 0.00 0.00 0.00 91 1020.3
20260904011716 80 270 0.0 0.0 0.00 0.00 0.00 90 1020.1
20260904011212 80 270 0.0 0.0 0.00 0.00 0.00 89 1020.0
20260904010707 80 270 0.0 0.0 0.00 0.00 0.00 89 1020.0
20260904010204 80 270 0.0 0.0 0.00 0.00 0.00 90 1020.0
20260904005659 81 270 0.0 0.0 0.00 0.00 0.00 89 1019.7
20260904005154 81 270 0.0 0.0 0.00 0.00 0.00 88 1019.8
20260904004644 81 270 0.0 0.0 0.00 0.00 0.00 88 1019.8
20260904004143 81 270 0.0 0.0 0.00 0.00 0.00 88 1019.5
20260904003639 82 270 0.0 0.0 0.00 0.00 0.00 87 1019.5
20260904003136 82 270 0.0 0.0 0.00 0.00 0.00 86 1019.3
20260904002631 82 270 0.0 0.0 0.00 0.00 0.00 86 1019.5
20260904002132 82 270 0.0 0.0 0.00 0.00 0.00 86 1019.4
20260904001627 83 270 0.0 1.0 0.00 0.00 0.00 85 1019.3
20260904001125 83 279 0.0 0.0 0.00 0.00 0.00 84 1019.2
20260904000621 83 279 0.0 0.0 0.00 0.00 0.00 84 1019.0
20260904000117 84 279 0.0 0.0 0.00 0.00 0.00 84 1019.1
20260903235616 84 279 0.0 0.0 0.00 0.00 0.00 82 1019.1
20260903235113 84 279 0.0 0.0 0.00 0.00 0.00 81 1019.0
20260903234607 85 279 0.0 0.0 0.00 0.00 0.00 81 1019.0
20260903234103 85 279 0.0 0.0 0.00 0.00 0.00 80 1019.0
20260903233559 86 279 0.0 0.0 0.00 0.00 0.00 80 1018.9
20260903233054 86 279 0.0 0.0 0.00 0.00 0.00 79 1018.7
20260903232549 86 279 0.0 0.0 0.00 0.00 0.00 78 1018.9
20260903232044 87 279 0.0 0.0 0.00 0.00 0.00 78 1018.5
20260903231539 87 279 0.0 0.0 0.00 0.00 0.00 77 1018.6
20260903231033 87 279 0.0 0.0 0.00 0.00 0.00 77 1019.0
20260903230530 88 279 0.0 0.0 0.00 0.00 0.00 75 1018.8
20260903230028 89 279 0.0 0.0 0.00 0.00 0.00 74 1019.0
20260903225526 89 279 0.0 0.0 0.00 0.00 0.00 73 1018.7
20260903225022 90 279 0.0 0.0 0.00 0.00 0.00 72 1018.7
20260903224518 88 279 0.0 0.0 0.00 0.00 0.00 74 1018.8
20260903224014 89 279 0.0 0.0 0.00 0.00 0.00 74 1019.1
20260903223513 89 279 0.0 0.0 0.00 0.00 0.00 72 1018.9
20260903223012 89 279 0.0 0.0 0.00 0.00 0.00 69 1018.8
20260903222507 90 279 0.0 0.0 0.00 0.00 0.00 68 1018.9
20260903222006 90 23 0.0 0.0 0.00 0.00 0.00 67 1018.8
20260903221501 91 23 0.0 0.0 0.00 0.00 0.00 66 1018.9
20260903220958 91 23 0.0 0.0 0.00 0.00 0.00 65 1018.9
20260903220453 92 23 0.0 0.0 0.00 0.00 0.00 64 1018.9
20260903215950 92 286 0.0 0.0 0.00 0.00 0.00 61 1019.1
20260903215447 95 286 0.0 0.0 0.00 0.00 0.00 62 1018.9
20260903214945 95 286 0.0 0.0 0.00 0.00 0.00 60 1018.9
20260903214441 96 286 0.0 0.0 0.00 0.00 0.00 55 1019.1
20260903213941 98 285 0.0 0.0 0.00 0.00 0.00 57 1018.9
20260903213436 99 285 0.0 0.0 0.00 0.00 0.00 54 1019.0
20260903212932 97 285 0.0 0.0 0.00 0.00 0.00 55 1018.9
20260903212428 98 285 0.0 0.0 0.00 0.00 0.00 52 1018.9
20260903211922 99 285 0.0 0.0 0.00 0.00 0.00 50 1018.8
20260903211418 103 285 0.0 0.0 0.00 0.00 0.00 49 1019.0
20260903210914 104 15 0.0 0.0 0.00 0.00 0.00 50 1019.1
20260903210413 101 340 0.0 1.0 0.00 0.00 0.00 45 1018.9
20260903205909 100 287 2.0 3.0 0.00 0.00 0.00 48 1018.9
20260903205408 99 354 1.0 2.0 0.00 0.00 0.00 49 1019.0
20260903204903 96 279 0.0 0.0 0.00 0.00 0.00 61 1019.1
20260903204359 95 279 0.0 0.0 0.00 0.00 0.00 61 1019.3
20260903203854 95 334 0.0 0.0 0.00 0.00 0.00 62 1019.1
20260903203350 94 334 0.0 0.0 0.00 0.00 0.00 61 1019.1
20260903202849 95 334 0.0 0.0 0.00 0.00 0.00 56 1019.2
20260903202346 95 353 0.0 4.0 0.00 0.00 0.00 53 1019.2
20260903201845 96 286 0.0 3.0 0.00 0.00 0.00 54 1019.1
20260903201341 97 90 0.0 1.0 0.00 0.00 0.00 55 1019.5
20260903200839 96 293 2.0 3.0 0.00 0.00 0.00 55 1019.4
20260903200335 94 270 0.0 0.0 0.00 0.00 0.00 63 1019.5
20260903195830 93 270 0.0 0.0 0.00 0.00 0.00 63 1019.4
20260903195326 94 270 0.0 0.0 0.00 0.00 0.00 61 1019.7
20260903194821 94 270 0.0 0.0 0.00 0.00 0.00 60 1019.7
20260903194316 95 306 1.0 2.0 0.00 0.00 0.00 57 1019.8
20260903193812 95 324 3.0 3.0 0.00 0.00 0.00 56 1019.8
20260903193308 95 300 2.0 3.0 0.00 0.00 0.00 57 1019.8
20260903192803 94 40 0.0 2.0 0.00 0.00 0.00 59 1019.9
20260903192259 95 294 0.0 1.0 0.00 0.00 0.00 58 1019.9
20260903191755 95 188 0.0 2.0 0.00 0.00 0.00 57 1019.8
20260903191250 97 270 0.0 3.0 0.00 0.00 0.00 55 1020.0
20260903190745 97 337 0.0 2.0 0.00 0.00 0.00 56 1019.9
20260903190244 95 299 2.0 3.0 0.00 0.00 0.00 57 1020.3
20260903185739 95 352 0.0 2.0 0.00 0.00 0.00 58 1020.1
20260903185239 95 18 0.0 2.0 0.00 0.00 0.00 55 1020.3
20260903184736 97 172 0.0 4.0 0.00 0.00 0.00 54 1020.1
20260903184231 98 353 1.0 3.0 0.00 0.00 0.00 54 1020.3
20260903183727 97 0 0.0 4.0 0.00 0.00 0.00 56 1020.6
20260903183221 96 36 0.0 3.0 0.00 0.00 0.00 57 1020.5
20260903182720 97 306 4.0 4.0 0.00 0.00 0.00 54 1020.3
20260903182215 97 313 3.0 4.0 0.00 0.00 0.00 55 1020.6
20260903181714 98 243 0.0 0.0 0.00 0.00 0.00 56 1020.5
20260903181209 97 48 0.0 2.0 0.00 0.00 0.00 57 1020.5
20260903180704 96 11 0.0 5.0 0.00 0.00 0.00 60 1020.7
20260903180158 96 285 1.0 4.0 0.00 0.00 0.00 58 1020.7
20260903175657 96 41 0.0 3.0 0.00 0.00 0.00 57 1020.7
20260903175157 97 57 2.0 3.0 0.00 0.00 0.00 57 1020.7
20260903174651 96 255 3.0 4.0 0.00 0.00 0.00 57 1020.8
20260903174146 96 251 0.0 4.0 0.00 0.00 0.00 55 1020.9
20260903173641 96 295 0.0 5.0 0.00 0.00 0.00 57 1021.0
20260903173138 95 346 2.0 2.0 0.00 0.00 0.00 58 1020.9
20260903172637 95 35 0.0 2.0 0.00 0.00 0.00 56 1021.2
20260903172132 95 322 2.0 4.0 0.00 0.00 0.00 56 1021.1
20260903171632 95 81 2.0 3.0 0.00 0.00 0.00 58 1020.9
20260903171129 95 23 1.0 2.0 0.00 0.00 0.00 58 1021.2
20260903170627 95 0 0.0 5.0 0.00 0.00 0.00 58 1021.4
20260903170123 95 14 1.0 3.0 0.00 0.00 0.00 59 1021.1
20260903165620 95 8 2.0 3.0 0.00 0.00 0.00 59 1021.4
20260903165116 94 261 0.0 4.0 0.00 0.00 0.00 61 1021.3
20260903164611 94 331 0.0 5.0 0.00 0.00 0.00 58 1021.4
20260903164107 95 292 2.0 2.0 0.00 0.00 0.00 60 1021.6
20260903163607 95 291 0.0 3.0 0.00 0.00 0.00 56 1021.7
20260903163103 94 346 2.0 4.0 0.00 0.00 0.00 54 1021.6
20260903162559 94 350 3.0 6.0 0.00 0.00 0.00 56 1021.7
20260903162054 94 248 5.0 5.0 0.00 0.00 0.00 60 1021.7
20260903161550 94 295 3.0 4.0 0.00 0.00 0.00 56 1021.8
20260903161045 93 344 4.0 4.0 0.00 0.00 0.00 59 1021.9
20260903160544 93 18 3.0 6.0 0.00 0.00 0.00 61 1021.9
20260903160039 93 22 2.0 2.0 0.00 0.00 0.00 63 1021.7
20260903155538 92 0 1.0 4.0 0.00 0.00 0.00 63 1021.7
20260903155034 93 356 0.0 2.0 0.00 0.00 0.00 66 1021.8
20260903154530 92 311 2.0 5.0 0.00 0.00 0.00 65 1022.0
20260903154026 92 255 3.0 4.0 0.00 0.00 0.00 69 1022.0
20260903153520 92 8 1.0 2.0 0.00 0.00 0.00 72 1021.9
20260903153017 92 15 1.0 1.0 0.00 0.00 0.00 69 1021.9
20260903152513 91 290 0.0 3.0 0.00 0.00 0.00 72 1022.1
20260903152009 90 213 3.0 3.0 0.00 0.00 0.00 72 1022.1
20260903151508 89 353 0.0 3.0 0.00 0.00 0.00 73 1022.1
20260903151002 90 246 0.0 3.0 0.00 0.00 0.00 75 1022.0
20260903150457 89 29 0.0 1.0 0.00 0.00 0.00 73 1022.2
20260903145952 88 345 0.0 3.0 0.00 0.00 0.00 74 1022.3
20260903145447 87 352 0.0 2.0 0.00 0.00 0.00 73 1022.0
20260903144942 88 270 0.0 3.0 0.00 0.00 0.00 74 1021.9
20260903144441 87 262 1.0 3.0 0.00 0.00 0.00 76 1021.9
20260903143937 86 270 1.0 2.0 0.00 0.00 0.00 77 1021.9
20260903143433 86 289 2.0 3.0 0.00 0.00 0.00 78 1021.9
20260903142929 85 15 0.0 0.0 0.00 0.00 0.00 83 1021.8
20260903142425 85 15 0.0 0.0 0.00 0.00 0.00 83 1021.8
20260903141920 84 15 0.0 0.0 0.00 0.00 0.00 84 1021.8
20260903141416 83 270 0.0 0.0 0.00 0.00 0.00 86 1021.9
20260903140912 83 270 0.0 0.0 0.00 0.00 0.00 86 1022.0
20260903140406 82 270 0.0 0.0 0.00 0.00 0.00 87 1021.8
20260903135901 82 270 0.0 0.0 0.00 0.00 0.00 87 1022.1
20260903135352 82 270 0.0 0.0 0.00 0.00 0.00 87 1021.8
20260903134850 82 278 0.0 2.0 0.00 0.00 0.00 87 1021.9
20260903134346 81 0 1.0 3.0 0.00 0.00 0.00 89 1021.8
20260903133843 80 254 0.0 1.0 0.00 0.00 0.00 92 1021.8
20260903133340 80 283 1.0 1.0 0.00 0.00 0.00 93 1022.0
20260903132834 79 337 0.0 0.0 0.00 0.00 0.00 93 1021.8
20260903132330 79 337 0.0 0.0 0.00 0.00 0.00 95 1021.8
20260903131824 78 337 0.0 1.0 0.00 0.00 0.00 95 1022.0
20260903131324 78 279 0.0 0.0 0.00 0.00 0.00 96 1022.1
20260903130823 77 331 0.0 2.0 0.00 0.00 0.00 98 1022.0
20260903130318 76 0 0.0 1.0 0.00 0.00 0.00 99 1022.1
20260903125817 76 0 0.0 0.0 0.00 0.00 0.00 99 1022.1
20260903125312 76 215 0.0 0.0 0.00 0.00 0.00 99 1022.3
20260903124811 76 8 0.0 0.0 0.00 0.00 0.00 99 1022.2
20260903124307 76 291 0.0 0.0 0.00 0.00 0.00 99 1022.2
20260903123806 75 291 0.0 0.0 0.00 0.00 0.00 99 1022.2
20260903123305 75 291 0.0 0.0 0.00 0.00 0.00 99 1022.2
20260903122804 74 291 0.0 0.0 0.00 0.00 0.00 99 1022.2
20260903122259 74 291 0.0 0.0 0.00 0.00 0.00 99 1021.9
20260903121756 73 291 0.0 0.0 0.00 0.00 0.00 99 1022.2
20260903121253 73 291 0.0 0.0 0.00 0.00 0.00 99 1022.1
20260903120749 73 291 0.0 1.0 0.00 0.00 0.00 99 1022.0
20260903120242 73 261 0.0 0.0 0.00 0.00 0.00 99 1022.2
20260903115741 72 279 0.0 0.0 0.00 0.00 0.00 99 1022.2
20260903115236 72 279 0.0 0.0 0.00 0.00 0.00 99 1022.2
20260903114730 72 279 0.0 0.0 0.00 0.00 0.00 99 1022.0
20260903114226 72 279 0.0 0.0 0.00 0.00 0.00 99 1022.1
20260903113721 72 279 0.0 0.0 0.00 0.00 0.00 99 1021.9
20260903113217 72 279 0.0 0.0 0.00 0.00 0.00 99 1022.1
20260903112713 71 279 0.0 0.0 0.00 0.00 0.00 99 1022.0
20260903112209 72 279 0.0 0.0 0.00 0.00 0.00 99 1021.9
20260903111707 72 279 0.0 0.0 0.00 0.00 0.00 99 1022.0
20260903111203 71 279 0.0 0.0 0.00 0.00 0.00 99 1021.7
20260903110658 71 279 0.0 0.0 0.00 0.00 0.00 99 1021.8
20260903110154 72 279 0.0 0.0 0.00 0.00 0.00 99 1021.6
20260903105648 72 279 0.0 0.0 0.00 0.00 0.00 99 1021.5
20260903105143 71 279 0.0 0.0 0.00 0.00 0.00 99 1021.5
20260903104643 71 279 0.0 0.0 0.00 0.00 0.00 99 1021.2
20260903104138 72 279 0.0 0.0 0.00 0.00 0.00 99 1021.4
20260903103634 72 279 0.0 0.0 0.00 0.00 0.00 99 1021.4
20260903103130 72 279 0.0 0.0 0.00 0.00 0.00 99 1021.3
20260903102625 72 279 0.0 0.0 0.00 0.00 0.00 99 1021.4
20260903102124 72 279 0.0 0.0 0.00 0.00 0.00 99 1021.1
20260903101624 72 279 0.0 0.0 0.00 0.00 0.00 99 1021.2
20260903101119 72 294 0.0 0.0 0.00 0.00 0.00 99 1021.1
20260903100614 72 294 0.0 0.0 0.00 0.00 0.00 99 1021.1
20260903100113 72 270 0.0 0.0 0.00 0.00 0.00 99 1021.4
20260903095611 72 352 0.0 0.0 0.00 0.00 0.00 99 1021.3
20260903095111 72 352 0.0 0.0 0.00 0.00 0.00 99 1021.1
20260903094606 72 294 0.0 0.0 0.00 0.00 0.00 99 1021.1
20260903094101 72 294 0.0 1.0 0.00 0.00 0.00 99 1021.2
20260903093556 72 14 0.0 0.0 0.00 0.00 0.00 99 1021.0
20260903093052 72 15 0.0 0.0 0.00 0.00 0.00 99 1021.0
20260903092551 72 15 0.0 1.0 0.00 0.00 0.00 99 1021.0
20260903092046 72 294 0.0 0.0 0.00 0.00 0.00 99 1021.1
20260903091544 72 261 0.0 0.0 0.00 0.00 0.00 99 1021.1
20260903091039 72 261 0.0 0.0 0.00 0.00 0.00 99 1021.0
20260903090535 72 261 0.0 0.0 0.00 0.00 0.00 99 1021.0
20260903090033 72 261 0.0 0.0 0.00 0.00 0.00 99 1021.0
20260903085532 72 261 0.0 0.0 0.00 0.00 0.00 99 1021.2
20260903085028 72 8 0.0 0.0 0.00 0.00 0.00 99 1021.2
20260903084526 72 283 0.0 0.0 0.00 0.00 0.00 99 1021.0
20260903084021 72 283 0.0 0.0 0.00 0.00 0.00 99 1020.9
20260903083516 72 283 0.0 0.0 0.00 0.00 0.00 99 1020.7
20260903083010 72 283 0.0 0.0 0.00 0.00 0.00 99 1020.8
20260903082505 73 283 0.0 0.0 0.00 0.00 0.00 99 1020.7
20260903082000 73 283 0.0 0.0 0.00 0.00 0.00 99 1020.8
20260903081455 73 283 0.0 0.0 0.00 0.00 0.00 99 1020.7
20260903080951 73 283 0.0 0.0 0.00 0.00 0.00 99 1020.7
20260903080447 73 283 0.0 0.0 0.00 0.00 0.00 99 1020.8
20260903075943 73 286 1.0 2.0 0.00 0.00 0.00 99 1020.8
20260903075438 73 0 0.0 0.0 0.00 0.00 0.00 99 1020.9
20260903074933 73 0 0.0 0.0 0.00 0.00 0.00 99 1020.7
20260903074432 73 0 0.0 0.0 0.00 0.00 0.00 99 1020.7
20260903073928 73 0 0.0 0.0 0.00 0.00 0.00 99 1020.7
20260903073423 73 0 0.0 0.0 0.00 0.00 0.00 99 1020.7
20260903072918 73 0 0.0 0.0 0.00 0.00 0.00 99 1020.7
20260903072414 73 0 0.0 0.0 0.00 0.00 0.00 99 1020.5
20260903071911 73 0 0.0 0.0 0.00 0.00 0.00 99 1020.7
20260903071407 73 0 0.0 0.0 0.00 0.00 0.00 98 1020.5
20260903070903 73 0 0.0 0.0 0.00 0.00 0.00 98 1020.4
20260903070357 73 0 0.0 0.0 0.00 0.00 0.00 98 1020.5
20260903065851 73 0 0.0 0.0 0.00 0.00 0.00 98 1020.4
20260903065351 73 0 0.0 0.0 0.00 0.00 0.00 98 1020.4